Regional Weather Roundup
Issued by NWS Grand Forks, ND

Home | Current Version | Previous Version | Text Only | Print | Product List | Glossary On
Versions: 1 2 3 4 5 6 7 8 9 10 11 12 13 14 15 16 17 18 19 20 21 22 23 24 25 26 27 28 29 30 31 32 33 34 35 36 37 38 39 40 41 42 43 44 45 46 47 48 49 50
000
ASUS43 KFGF 301031
RWRFGF
PRAIRIE TO PINES  WEATHER ROUNDUP
NATIONAL WEATHER SERVICE EASTERN NORTH DAKOTA/GRAND FORKS ND
400 AM CST FRI JAN 30 2015

 **SATELLITE DATA USED TO AUGMENT SKY COVER AT AUTOMATED STATIONS**
 *****  WEATHER ACROSS EASTERN NORTH DAKOTA  *****

CITY           SKY/WX    TMP DP  RH WIND       PRES   REMARKS
GRAND FORKS    CLOUDY     8   1  73 S7        30.48F WCI  -3
GRAND FRKS AFB CLOUDY     9   1  72 S9        30.46F WCI  -5
GRAND FRKS NWS   N/A      7 N/A N/A S12         N/A  WCI  -9
DEVILS LAKE    CLOUDY    16  12  86 S12       30.33F WCI   3
FARGO          MOCLDY    10   2  69 SE8       30.49F WCI  -2
WAHPETON ARPT  PTSUNNY   10   5  79 S7        30.49F WCI   0
$$

 ***** WEATHER ACROSS CENTRAL AND WESTERN NORTH DAKOTA  *****

CITY           SKY/WX    TMP DP  RH WIND       PRES   REMARKS
BISMARCK       CLEAR     20  18  92 SE13      30.32F WCI   7
MINOT          CLOUDY    20  16  84 SE7       30.21F WCI  11
JAMESTOWN      CLOUDY    18  15  88 S16       30.37F WCI   3
MINOT AFB      CLOUDY    18  18  98 SE7       30.21F WCI   9
GARRISON         N/A     19  17  92 S7        30.23F WCI  10
WILLISTON      CLEAR     22  17  81 SW3       30.17S
DICKINSON      PTCLDY    28  18  66 S15       30.15F WCI  16
HETTINGER      PTCLDY    25  18  74 S6        30.23F WCI  18
$$

 *****  OTHER AIRPORT OBSERVATIONS IN OUR AREA  *****

CITY           SKY/WX    TMP DP  RH WIND       PRES   REMARKS
WALHALLA       HVY SNOW   7   7 100 S10       30.42F WCI  -8
GRAFTON AIRPOR NOT AVBL
VALLEY CITY AR CLOUDY    14  14 100 S7        30.41F WCI   4
CANDO          CLOUDY    14  10  85 SE12      30.33F WCI   0
CAVALIER APRT  LGT SNOW   7   1  78 S10       30.43F WCI  -8
GWINNER        CLOUDY    19  18  93 S9        30.45F WCI   9
SHEYENNE NWR     N/A     10   5  79 S7        29.95S WCI  -1
ROLLA          CLOUDY    14  14 100 S13       30.28F WCI   0
 ***** THE ABOVE OBSERVATIONS ARE NON NWS ARE NOT QUALITY
       CONTROLLED AND MAY MIS-REPORT RAIN FOR SNOW...
$$

  *****  WEATHER ACROSS NORTHERN MINNESOTA  *****

CITY           SKY/WX    TMP DP  RH WIND       PRES   REMARKS
FLAG ISLAND    CLOUDY    -2  -8  78 CALM      30.45F
WARROAD        MOCLDY     0  -6  78 S3        30.46F
ROSEAU         MOCLDY     1  -4  78 S5        30.46F WCI  -8
HALLOCK        CLOUDY     7   1  78 S10       30.46F WCI  -8
THF RVR FALLS  CLOUDY     3   0  85 S6        30.46S WCI  -8
BAUDETTE       MOCLDY    -4  -8  83 CALM      30.46F
WASKISH        CLOUDY    -4  -8  84 CALM      30.46F
CROOKSTON      CLOUDY     7   1  78 S6        30.50F WCI  -3
STEPHEN NDAWN    N/A      5   0  78 S8          N/A  WCI  -8
GREENBUSH NDAW   N/A      1  -2  85 S8          N/A  WCI -12
$$
  *****  WEATHER ACROSS CENTRAL AND WEST MINNESOTA  *****

CITY           SKY/WX    TMP DP  RH WIND       PRES   REMARKS
FOSSTON        CLOUDY     1  -2  85 SE5       30.45F WCI  -8
BEMIDJI        MOCLDY    -1  -4  86 CALM      30.46S
PARK RAPIDS    MOCLDY     4   0  83 CALM      30.44F
ELBOW LAKE     FAIR       8   3  80 S6        30.47F WCI  -2
WADENA         PTCLDY     3   0  85 CALM      30.46S
DETROIT LAKES  MOCLDY     5   3  92 SE6       30.47S WCI  -6
MOORHEAD       MOCLDY    10   7  85 S7        30.50F WCI   0
FERGUS FALLS   MOCLDY     9   1  72 SE5       30.52F WCI   0
MORRIS MN      PTCLDY     9   5  85 S5        30.48F WCI   0
STAPLES        MOCLDY     3   1  92 CALM      30.47S
$$
  *****  WEATHER ELSEWHERE ACROSS MINNESOTA  *****

CITY           SKY/WX    TMP DP  RH WIND       PRES   REMARKS
DULUTH         PTCLDY    -1  -6  79 NW7       30.43F WCI -14
INTRNTL FALLS  MOCLDY    -9 -13  83 CALM      30.47S
ELY            CLOUDY     1  -4  78 CALM      30.44F
CLOQUET        PTCLDY    -2  -6  84 NW3       30.45F
WHEATON        PTCLDY     9   5  85 SE6       30.51F WCI  -1
BRAINERD       PTCLDY     4   0  83 CALM      30.49F
HIBBING        MOCLDY   -10 -15  78 CALM      30.45F
ALEXANDRIA     PTCLDY     7   2  80 CALM      30.47F
SAINT CLOUD    PTCLDY     9   4  80 CALM      30.51F
MINNEAPOLIS    MOCLDY    13   5  70 N6        30.54F WCI   4
$$

  *****  WEATHER ACROSS SOUTH DAKOTA  *****

CITY           SKY/WX    TMP DP  RH WIND       PRES   REMARKS
SIOUX FALLS    CLOUDY    21  16  81 S5        30.49F WCI  15
BROOKINGS      NOT AVBL
WATERTOWN      CLOUDY    17  13  84 S8        30.44F WCI   7
HURON          CLEAR     18  15  88 S8        30.45F WCI   8
SISSETON         N/A     13  10  88 S9        30.47F WCI   1
ABERDEEN       CLEAR     14  11  87 SE3       30.45F
MITCHELL       CLEAR     19  16  88 S7        30.48F WCI  10
PIERRE         CLEAR     21  18  88 E10       30.36F WCI  10
MOBRIDGE       CLEAR     20  17  88 S13       30.32F WCI   7
RAPID CITY     PTCLDY    23  14  68 E5        30.23F WCI  17
$$

  *****  SOME WEATHER IN NEARBY STATES *****

CITY           SKY/WX    TMP DP  RH WIND       PRES   REMARKS
GLASGOW MT     CLEAR     23  20  88 W5        30.17R WCI  17
GREAT FALLS MT CLEAR     31  18  58 SW12      30.21R WCI  22
CHEYENNE WY    CLOUDY    26  20  77 W3        30.22F
SCOTTSBLUFF NE MOCLDY    28  21  75 E9        30.27F WCI  19
OMAHA NE       CLEAR     22  19  89 NW3       30.55S
DES MOINES IA  CLEAR     20  13  74 NE6       30.53F WCI  12
DAVENPORT IA   CLEAR     19  11  70 NW8       30.49R WCI   9
CHICAGO IL     CLEAR     23   9  55 N14       30.41R WCI  11
EAU CLAIRE WI  PTCLDY     7  -1  70 N6        30.51F WCI  -3
LA CROSSE WI   CLEAR     13   6  74 NW6       30.54  WCI   4
$$

  *****  SOME NATIONAL WEATHER *****

CITY           SKY/WX    TMP DP  RH WIND       PRES   REMARKS
LA GUARDIA NY  FLURRIES  35  27  72 SW8       29.85F
RALEIGH NC     LGT RAIN  39  28  64 SW3       29.97R
ATLANTA GA     MOCLDY    41  28  60 NW25G36   30.18R
NEW ORLEANS LA PTCLDY    54  43  66 N14G24    30.29R
OKLAHOMA CITY  MOCLDY    36  26  67 NE7       30.49F
ALBUQUERQUE NM CLOUDY    36  28  73 E16G23    30.35F
SALT LAKE CITY CLOUDY    38  36  92 W5        30.21F
LOS ANGELES CA CLOUDY    61  52  72 SW6       29.97F
BOISE ID       PTCLDY    31  28  89 S5        30.30S
SEATTLE WA     CLEAR     38  35  89 N5        30.31R
$$

*** WEATHER ACROSS MANITOBA...SASKATCHEWAN AND ONTARIO ***
                ***ONTARIO***

CITY           SKY/WX    TMP DP  RH WIND       PRES   REMARKS
GERALDTON      CLEAR    -15 -20  76 W6        30.35S WCI -29
THUNDER BAY    CLEAR     -6  -9  84 W8        30.51R WCI -21
SIOUX LOOKOUT  CRYSTALS -13 -17  84 CALM      30.42S
TORONTO        CLOUDY    23  18  80 N22G28    29.98R WCI   8
BIG TROUT LK   CLEAR    -17 -22  76 W8        30.27F WCI -34
PICKLE LAKE    NOT AVBL
DRYDEN         CLOUDY    -9 -13  84 W6        30.42F WCI -23
KENORA         PTCLDY    -9 -13  84 SW3       30.43
$$
                *** MANITOBA***

CITY           SKY/WX    TMP DP  RH WIND       PRES   REMARKS
BRANDON        FLURRIES   9   7  92 E6        30.30F WCI  -1
DAUPHIN        CLOUDY     9   5  85 NE5       30.26F WCI   0
ISLAND LAKE    CLEAR    -17 -22  76 SW6       30.34F WCI -31
PILOT MOUND      N/A     10   9  92 S14         N/A  WCI  -5
THE PAS        FLURRIES   1  -2  85 SE6       30.23F WCI -10
THOMPSON       CLOUDY   -13 -18  77 SW5       30.26F WCI -25
WINNIPEG       CLOUDY     3  -6  66 S14       30.44F WCI -15
LYNN LAKE      CLOUDY    -9 -13  84 W3        30.17F
CHURCHILL      CLEAR    -17 -24  70 W15       30.11F WCI -41
GILLAM         CLEAR    -18 -24  76 SW8       30.22F WCI -37
$$
                ***SASKATCHEWAN***

CITY           SKY/WX    TMP DP  RH WIND       PRES   REMARKS
ESTEVAN        PTCLDY    12  10  92 E6        30.16F WCI   3
KINDERSLEY     PTCLDY    14  12  92 NW7       30.18R WCI   4
LLOYDMINSTER   NOT AVBL
PRINCE ALBERT  FLURRIES  10   7  85 S2        30.16F
REGINA         PTCLDY    12  10  92 SE8       30.15F WCI   1
YORKTON        MOCLDY     9   7  92 SE6       30.16F WCI  -1
N. BATTLEFORD  CLOUDY    19  18  93 NW12      30.19R WCI   7
LA RONGE       NOT AVBL
SASKATOON      CLOUDY    10   9  92 SW3       30.17S
SWIFT CURRENT  MOCLDY    25  25 100 W13       30.15R WCI  13
$$
NOTE: THESE ARE AUTOMATED STATIONS WITH LIMITED QUALITY CONTROL
      "FAIR" INDICATES FEW OR NO CLOUDS BELOW 12,000 FEET WITH NO
      SIGNIFICANT WEATHER AND/OR OBSTRUCTIONS TO VISIBILITY.
      SKY/WX - SKY CONDITION AND SIGNIFICANT WEATHER.
      TMP - AIR TEMPERATURE.    DP   - DEWPOINT TEMPERATURE.
      RH  - RELATIVE HUMIDITY.  PRES - PRESSURE.
      HX  - HEAT INDEX.         WCI  - WIND CHILL INDEX.
$



USA.gov is the U.S. government's official web portal to all federal, state and local government web resources and services.